#datetime,building,power
2022-08-19T00:00:00,sdl,2.44
2022-08-19T00:01:00,sdl,4.76
2022-08-19T00:02:00,sdl,2.60
2022-08-19T00:03:00,sdl,2.59
2022-08-19T00:04:00,sdl,2.56
2022-08-19T00:05:00,sdl,2.55
2022-08-19T00:06:00,sdl,2.45
2022-08-19T00:07:00,sdl,2.36
2022-08-19T00:08:00,sdl,2.28
2022-08-19T00:09:00,sdl,2.15
2022-08-19T00:10:00,sdl,2.07
2022-08-19T00:11:00,sdl,2.47
2022-08-19T00:12:00,sdl,4.66
2022-08-19T00:13:00,sdl,4.21
2022-08-19T00:14:00,sdl,4.33
2022-08-19T00:15:00,sdl,6.52
2022-08-19T00:16:00,sdl,6.58
2022-08-19T00:17:00,sdl,6.64
2022-08-19T00:18:00,sdl,6.59
2022-08-19T00:19:00,sdl,6.52
2022-08-19T00:20:00,sdl,6.48
2022-08-19T00:21:00,sdl,4.65
2022-08-19T00:22:00,sdl,4.44
2022-08-19T00:23:00,sdl,2.30
2022-08-19T00:24:00,sdl,2.24
2022-08-19T00:25:00,sdl,2.18
2022-08-19T00:26:00,sdl,2.46
2022-08-19T00:27:00,sdl,2.15
2022-08-19T00:28:00,sdl,2.16
2022-08-19T00:29:00,sdl,2.14
2022-08-19T00:30:00,sdl,2.17
2022-08-19T00:31:00,sdl,2.29
2022-08-19T00:32:00,sdl,2.27
2022-08-19T00:33:00,sdl,2.06
2022-08-19T00:34:00,sdl,2.10
2022-08-19T00:35:00,sdl,2.10
2022-08-19T00:36:00,sdl,2.18
2022-08-19T00:37:00,sdl,2.26
2022-08-19T00:38:00,sdl,2.43
2022-08-19T00:39:00,sdl,4.67
2022-08-19T00:40:00,sdl,2.71
2022-08-19T00:41:00,sdl,2.37
2022-08-19T00:42:00,sdl,2.39
2022-08-19T00:43:00,sdl,2.77
2022-08-19T00:44:00,sdl,2.67
2022-08-19T00:45:00,sdl,2.29
2022-08-19T00:46:00,sdl,2.17
2022-08-19T00:47:00,sdl,2.17
2022-08-19T00:48:00,sdl,1.97
2022-08-19T00:49:00,sdl,2.02
2022-08-19T00:50:00,sdl,2.02
2022-08-19T00:51:00,sdl,1.97
2022-08-19T00:52:00,sdl,2.73
2022-08-19T00:53:00,sdl,2.89
2022-08-19T00:54:00,sdl,7.25
2022-08-19T00:55:00,sdl,7.20
2022-08-19T00:56:00,sdl,7.28
2022-08-19T00:57:00,sdl,6.12
2022-08-19T00:58:00,sdl,5.23
2022-08-19T00:59:00,sdl,4.40
2022-08-19T01:00:00,sdl,4.40
2022-08-19T01:01:00,sdl,4.15
2022-08-19T01:02:00,sdl,4.19
2022-08-19T01:03:00,sdl,3.72
2022-08-19T01:04:00,sdl,3.73
2022-08-19T01:05:00,sdl,3.84
2022-08-19T01:06:00,sdl,3.80
2022-08-19T01:07:00,sdl,3.57
2022-08-19T01:08:00,sdl,3.97
2022-08-19T01:09:00,sdl,3.65
2022-08-19T01:10:00,sdl,3.67
2022-08-19T01:11:00,sdl,1.38
2022-08-19T01:12:00,sdl,1.52
2022-08-19T01:13:00,sdl,3.60
2022-08-19T01:14:00,sdl,2.22
2022-08-19T01:15:00,sdl,2.23
2022-08-19T01:16:00,sdl,2.66
2022-08-19T01:17:00,sdl,1.82
2022-08-19T01:18:00,sdl,1.83
2022-08-19T01:19:00,sdl,1.84
2022-08-19T01:20:00,sdl,1.83
2022-08-19T01:21:00,sdl,1.74
2022-08-19T01:22:00,sdl,1.54
2022-08-19T01:23:00,sdl,1.55
2022-08-19T01:24:00,sdl,1.61
2022-08-19T01:25:00,sdl,1.56
2022-08-19T01:26:00,sdl,1.61
2022-08-19T01:27:00,sdl,2.06
2022-08-19T01:28:00,sdl,3.90
2022-08-19T01:29:00,sdl,3.82
2022-08-19T01:30:00,sdl,3.78
2022-08-19T01:31:00,sdl,1.81
2022-08-19T01:32:00,sdl,1.83
2022-08-19T01:33:00,sdl,1.90
2022-08-19T01:34:00,sdl,2.40
2022-08-19T01:35:00,sdl,2.18
2022-08-19T01:36:00,sdl,2.48
2022-08-19T01:37:00,sdl,2.55
2022-08-19T01:38:00,sdl,2.06
2022-08-19T01:39:00,sdl,1.84
2022-08-19T01:40:00,sdl,1.69
2022-08-19T01:41:00,sdl,1.81
2022-08-19T01:42:00,sdl,2.20
2022-08-19T01:43:00,sdl,1.89
2022-08-19T01:44:00,sdl,1.44
2022-08-19T01:45:00,sdl,1.87
2022-08-19T01:46:00,sdl,1.62
2022-08-19T01:47:00,sdl,2.07
2022-08-19T01:48:00,sdl,2.70
2022-08-19T01:49:00,sdl,2.81
2022-08-19T01:50:00,sdl,1.80
2022-08-19T01:51:00,sdl,1.75
2022-08-19T01:52:00,sdl,4.01
2022-08-19T01:53:00,sdl,4.45
2022-08-19T01:54:00,sdl,3.89
2022-08-19T01:55:00,sdl,4.54
2022-08-19T01:56:00,sdl,4.14
2022-08-19T01:57:00,sdl,4.65
2022-08-19T01:58:00,sdl,3.86
2022-08-19T01:59:00,sdl,6.18
2022-08-19T02:00:00,sdl,5.89
2022-08-19T02:01:00,sdl,7.93
2022-08-19T02:02:00,sdl,7.83
2022-08-19T02:03:00,sdl,7.50
2022-08-19T02:04:00,sdl,6.86
2022-08-19T02:05:00,sdl,11.46
2022-08-19T02:06:00,sdl,11.68
2022-08-19T02:07:00,sdl,9.80
2022-08-19T02:08:00,sdl,9.35
2022-08-19T02:09:00,sdl,9.35
2022-08-19T02:10:00,sdl,11.61
2022-08-19T02:11:00,sdl,12.34
2022-08-19T02:12:00,sdl,12.41
2022-08-19T02:13:00,sdl,12.58
2022-08-19T02:14:00,sdl,12.74
2022-08-19T02:15:00,sdl,12.80
2022-08-19T02:16:00,sdl,13.83
2022-08-19T02:17:00,sdl,13.66
2022-08-19T02:18:00,sdl,14.01
2022-08-19T02:19:00,sdl,8.44
2022-08-19T02:20:00,sdl,8.10
2022-08-19T02:21:00,sdl,7.31
2022-08-19T02:22:00,sdl,7.35
2022-08-19T02:23:00,sdl,12.46
2022-08-19T02:24:00,sdl,14.93
2022-08-19T02:25:00,sdl,14.94
2022-08-19T02:26:00,sdl,15.10
2022-08-19T02:27:00,sdl,9.59
2022-08-19T02:28:00,sdl,9.60
2022-08-19T02:29:00,sdl,9.63
2022-08-19T02:30:00,sdl,10.03
2022-08-19T02:31:00,sdl,14.71
2022-08-19T02:32:00,sdl,15.64
2022-08-19T02:33:00,sdl,14.96
2022-08-19T02:34:00,sdl,14.83
2022-08-19T02:35:00,sdl,14.84
2022-08-19T02:36:00,sdl,13.20
2022-08-19T02:37:00,sdl,7.62
2022-08-19T02:38:00,sdl,7.71
2022-08-19T02:39:00,sdl,7.96
2022-08-19T02:40:00,sdl,6.94
2022-08-19T02:41:00,sdl,7.00
2022-08-19T02:42:00,sdl,12.16
2022-08-19T02:43:00,sdl,12.30
2022-08-19T02:44:00,sdl,12.87
2022-08-19T02:45:00,sdl,12.34
2022-08-19T02:46:00,sdl,12.43
2022-08-19T02:47:00,sdl,6.96
2022-08-19T02:48:00,sdl,7.31
2022-08-19T02:49:00,sdl,7.45
2022-08-19T02:50:00,sdl,7.09
2022-08-19T02:51:00,sdl,12.08
2022-08-19T02:52:00,sdl,13.29
2022-08-19T02:53:00,sdl,12.64
2022-08-19T02:54:00,sdl,12.59
2022-08-19T02:55:00,sdl,12.61
2022-08-19T02:56:00,sdl,7.21
2022-08-19T02:57:00,sdl,8.12
2022-08-19T02:58:00,sdl,8.47
2022-08-19T02:59:00,sdl,8.10
2022-08-19T03:00:00,sdl,8.08
2022-08-19T03:01:00,sdl,13.27
2022-08-19T03:02:00,sdl,12.68
2022-08-19T03:03:00,sdl,12.66
2022-08-19T03:04:00,sdl,12.92
2022-08-19T03:05:00,sdl,7.39
2022-08-19T03:06:00,sdl,7.33
2022-08-19T03:07:00,sdl,7.34
2022-08-19T03:08:00,sdl,7.38
2022-08-19T03:09:00,sdl,14.60
2022-08-19T03:10:00,sdl,14.66
2022-08-19T03:11:00,sdl,15.04
2022-08-19T03:12:00,sdl,14.72
2022-08-19T03:13:00,sdl,9.35
2022-08-19T03:14:00,sdl,9.33
2022-08-19T03:15:00,sdl,9.27
2022-08-19T03:16:00,sdl,9.18
2022-08-19T03:17:00,sdl,9.95
2022-08-19T03:18:00,sdl,14.32
2022-08-19T03:19:00,sdl,14.86
2022-08-19T03:20:00,sdl,15.46
2022-08-19T03:21:00,sdl,15.56
2022-08-19T03:22:00,sdl,10.18
2022-08-19T03:23:00,sdl,10.34
2022-08-19T03:24:00,sdl,9.44
2022-08-19T03:25:00,sdl,10.32
2022-08-19T03:26:00,sdl,14.37
2022-08-19T03:27:00,sdl,14.80
2022-08-19T03:28:00,sdl,12.68
2022-08-19T03:29:00,sdl,12.67
2022-08-19T03:30:00,sdl,7.17
2022-08-19T03:31:00,sdl,7.17
2022-08-19T03:32:00,sdl,7.14
2022-08-19T03:33:00,sdl,7.16
2022-08-19T03:34:00,sdl,11.63
2022-08-19T03:35:00,sdl,12.40
2022-08-19T03:36:00,sdl,12.49
2022-08-19T03:37:00,sdl,12.51
2022-08-19T03:38:00,sdl,12.69
2022-08-19T03:39:00,sdl,7.25
2022-08-19T03:40:00,sdl,7.20
2022-08-19T03:41:00,sdl,7.19
2022-08-19T03:42:00,sdl,7.23
2022-08-19T03:43:00,sdl,13.14
2022-08-19T03:44:00,sdl,13.46
2022-08-19T03:45:00,sdl,13.43
2022-08-19T03:46:00,sdl,13.58
2022-08-19T03:47:00,sdl,8.10
2022-08-19T03:48:00,sdl,7.13
2022-08-19T03:49:00,sdl,7.57
2022-08-19T03:50:00,sdl,7.43
2022-08-19T03:51:00,sdl,7.61
2022-08-19T03:52:00,sdl,12.11
2022-08-19T03:53:00,sdl,12.31
2022-08-19T03:54:00,sdl,14.74
2022-08-19T03:55:00,sdl,14.89
2022-08-19T03:56:00,sdl,9.46
2022-08-19T03:57:00,sdl,9.44
2022-08-19T03:58:00,sdl,9.58
2022-08-19T03:59:00,sdl,9.57
2022-08-19T04:00:00,sdl,10.13
2022-08-19T04:01:00,sdl,14.70
2022-08-19T04:02:00,sdl,14.70
2022-08-19T04:03:00,sdl,12.40
2022-08-19T04:04:00,sdl,6.96
2022-08-19T04:05:00,sdl,6.95
2022-08-19T04:06:00,sdl,6.94
2022-08-19T04:07:00,sdl,6.93
2022-08-19T04:08:00,sdl,6.90
2022-08-19T04:09:00,sdl,12.87
2022-08-19T04:10:00,sdl,13.07
2022-08-19T04:11:00,sdl,13.15
2022-08-19T04:12:00,sdl,7.75
2022-08-19T04:13:00,sdl,6.83
2022-08-19T04:14:00,sdl,6.81
2022-08-19T04:15:00,sdl,7.01
2022-08-19T04:16:00,sdl,11.61
2022-08-19T04:17:00,sdl,12.88
2022-08-19T04:18:00,sdl,12.35
2022-08-19T04:19:00,sdl,12.37
2022-08-19T04:20:00,sdl,7.40
2022-08-19T04:21:00,sdl,7.46
2022-08-19T04:22:00,sdl,7.52
2022-08-19T04:23:00,sdl,9.07
2022-08-19T04:24:00,sdl,14.16
2022-08-19T04:25:00,sdl,14.15
2022-08-19T04:26:00,sdl,14.15
2022-08-19T04:27:00,sdl,8.83
2022-08-19T04:28:00,sdl,9.23
2022-08-19T04:29:00,sdl,9.29
2022-08-19T04:30:00,sdl,9.59
2022-08-19T04:31:00,sdl,9.52
2022-08-19T04:32:00,sdl,14.71
2022-08-19T04:33:00,sdl,15.94
2022-08-19T04:34:00,sdl,15.98
2022-08-19T04:35:00,sdl,10.57
2022-08-19T04:36:00,sdl,10.59
2022-08-19T04:37:00,sdl,9.77
2022-08-19T04:38:00,sdl,9.77
2022-08-19T04:39:00,sdl,14.38
2022-08-19T04:40:00,sdl,14.58
2022-08-19T04:41:00,sdl,14.70
2022-08-19T04:42:00,sdl,12.54
2022-08-19T04:43:00,sdl,6.95
2022-08-19T04:44:00,sdl,7.07
2022-08-19T04:45:00,sdl,7.06
2022-08-19T04:46:00,sdl,7.00
2022-08-19T04:47:00,sdl,11.92
2022-08-19T04:48:00,sdl,12.32
2022-08-19T04:49:00,sdl,12.46
2022-08-19T04:50:00,sdl,12.41
2022-08-19T04:51:00,sdl,7.48
2022-08-19T04:52:00,sdl,7.77
2022-08-19T04:53:00,sdl,7.06
2022-08-19T04:54:00,sdl,7.13
2022-08-19T04:55:00,sdl,7.19
2022-08-19T04:56:00,sdl,12.56
2022-08-19T04:57:00,sdl,13.51
2022-08-19T04:58:00,sdl,13.60
2022-08-19T04:59:00,sdl,7.91
2022-08-19T05:00:00,sdl,7.93
2022-08-19T05:01:00,sdl,7.08
2022-08-19T05:02:00,sdl,7.18
2022-08-19T05:03:00,sdl,7.02
2022-08-19T05:04:00,sdl,12.10
2022-08-19T05:05:00,sdl,12.90
2022-08-19T05:06:00,sdl,13.06
2022-08-19T05:07:00,sdl,7.65
2022-08-19T05:08:00,sdl,7.67
2022-08-19T05:09:00,sdl,7.79
2022-08-19T05:10:00,sdl,7.78
2022-08-19T05:11:00,sdl,7.79
2022-08-19T05:12:00,sdl,12.87
2022-08-19T05:13:00,sdl,13.11
2022-08-19T05:14:00,sdl,13.05
2022-08-19T05:15:00,sdl,13.35
2022-08-19T05:16:00,sdl,7.75
2022-08-19T05:17:00,sdl,7.76
2022-08-19T05:18:00,sdl,9.91
2022-08-19T05:19:00,sdl,9.86
2022-08-19T05:20:00,sdl,9.88
2022-08-19T05:21:00,sdl,15.06
2022-08-19T05:22:00,sdl,16.36
2022-08-19T05:23:00,sdl,11.00
2022-08-19T05:24:00,sdl,10.61
2022-08-19T05:25:00,sdl,11.38
2022-08-19T05:26:00,sdl,9.82
2022-08-19T05:27:00,sdl,11.38
2022-08-19T05:28:00,sdl,12.88
2022-08-19T05:29:00,sdl,13.05
2022-08-19T05:30:00,sdl,13.01
2022-08-19T05:31:00,sdl,13.12
2022-08-19T05:32:00,sdl,7.61
2022-08-19T05:33:00,sdl,7.97
2022-08-19T05:34:00,sdl,8.13
2022-08-19T05:35:00,sdl,7.56
2022-08-19T05:36:00,sdl,12.20
2022-08-19T05:37:00,sdl,12.74
2022-08-19T05:38:00,sdl,12.84
2022-08-19T05:39:00,sdl,12.92
2022-08-19T05:40:00,sdl,7.32
2022-08-19T05:41:00,sdl,7.46
2022-08-19T05:42:00,sdl,7.49
2022-08-19T05:43:00,sdl,9.68
2022-08-19T05:44:00,sdl,14.40
2022-08-19T05:45:00,sdl,15.09
2022-08-19T05:46:00,sdl,15.26
2022-08-19T05:47:00,sdl,15.25
2022-08-19T05:48:00,sdl,10.70
2022-08-19T05:49:00,sdl,10.62
2022-08-19T05:50:00,sdl,10.65
2022-08-19T05:51:00,sdl,10.60
2022-08-19T05:52:00,sdl,15.16
2022-08-19T05:53:00,sdl,15.52
2022-08-19T05:54:00,sdl,15.09
2022-08-19T05:55:00,sdl,9.69
2022-08-19T05:56:00,sdl,9.76
2022-08-19T05:57:00,sdl,9.82
2022-08-19T05:58:00,sdl,9.87
2022-08-19T05:59:00,sdl,9.78
2022-08-19T06:00:00,sdl,14.93
2022-08-19T06:01:00,sdl,15.75
2022-08-19T06:02:00,sdl,9.71
2022-08-19T06:03:00,sdl,7.06
2022-08-19T06:04:00,sdl,7.18
2022-08-19T06:05:00,sdl,7.19
2022-08-19T06:06:00,sdl,7.29
2022-08-19T06:07:00,sdl,12.39
2022-08-19T06:08:00,sdl,12.39
2022-08-19T06:09:00,sdl,12.65
2022-08-19T06:10:00,sdl,7.17
2022-08-19T06:11:00,sdl,7.08
2022-08-19T06:12:00,sdl,7.22
2022-08-19T06:13:00,sdl,7.27
2022-08-19T06:14:00,sdl,10.05
2022-08-19T06:15:00,sdl,15.58
2022-08-19T06:16:00,sdl,15.96
2022-08-19T06:17:00,sdl,10.61
2022-08-19T06:18:00,sdl,9.90
2022-08-19T06:19:00,sdl,10.38
2022-08-19T06:20:00,sdl,9.94
2022-08-19T06:21:00,sdl,14.92
2022-08-19T06:22:00,sdl,15.49
2022-08-19T06:23:00,sdl,10.41
2022-08-19T06:24:00,sdl,11.27
2022-08-19T06:25:00,sdl,10.18
2022-08-19T06:26:00,sdl,7.31
2022-08-19T06:27:00,sdl,7.29
2022-08-19T06:28:00,sdl,12.52
2022-08-19T06:29:00,sdl,12.75
2022-08-19T06:30:00,sdl,7.50
2022-08-19T06:31:00,sdl,7.20
2022-08-19T06:32:00,sdl,7.24
2022-08-19T06:33:00,sdl,7.12
2022-08-19T06:34:00,sdl,7.45
2022-08-19T06:35:00,sdl,7.10
2022-08-19T06:36:00,sdl,7.01
2022-08-19T06:37:00,sdl,6.97
2022-08-19T06:38:00,sdl,7.68
2022-08-19T06:39:00,sdl,7.96
2022-08-19T06:40:00,sdl,7.94
2022-08-19T06:41:00,sdl,7.93
2022-08-19T06:42:00,sdl,7.97
2022-08-19T06:43:00,sdl,6.95
2022-08-19T06:44:00,sdl,6.98
2022-08-19T06:45:00,sdl,6.98
2022-08-19T06:46:00,sdl,9.19
2022-08-19T06:47:00,sdl,9.21
2022-08-19T06:48:00,sdl,9.14
2022-08-19T06:49:00,sdl,9.17
2022-08-19T06:50:00,sdl,9.49
2022-08-19T06:51:00,sdl,9.41
2022-08-19T06:52:00,sdl,9.57
2022-08-19T06:53:00,sdl,9.83
2022-08-19T06:54:00,sdl,9.85
2022-08-19T06:55:00,sdl,9.14
2022-08-19T06:56:00,sdl,9.09
2022-08-19T06:57:00,sdl,9.75
2022-08-19T06:58:00,sdl,9.43
2022-08-19T06:59:00,sdl,9.36
2022-08-19T07:00:00,sdl,9.23
2022-08-19T07:01:00,sdl,9.23
2022-08-19T07:02:00,sdl,11.95
2022-08-19T07:03:00,sdl,12.96
2022-08-19T07:04:00,sdl,7.87
2022-08-19T07:05:00,sdl,5.77
2022-08-19T07:06:00,sdl,6.19
2022-08-19T07:07:00,sdl,6.24
2022-08-19T07:08:00,sdl,6.26
2022-08-19T07:09:00,sdl,6.26
2022-08-19T07:10:00,sdl,6.28
2022-08-19T07:11:00,sdl,6.27
2022-08-19T07:12:00,sdl,6.27
2022-08-19T07:13:00,sdl,6.22
2022-08-19T07:14:00,sdl,6.19
2022-08-19T07:15:00,sdl,6.19
2022-08-19T07:16:00,sdl,6.24
2022-08-19T07:17:00,sdl,6.30
2022-08-19T07:18:00,sdl,8.53
2022-08-19T07:19:00,sdl,8.40
2022-08-19T07:20:00,sdl,8.41
2022-08-19T07:21:00,sdl,8.21
2022-08-19T07:22:00,sdl,8.25
2022-08-19T07:23:00,sdl,8.70
2022-08-19T07:24:00,sdl,8.64
2022-08-19T07:25:00,sdl,8.26
2022-08-19T07:26:00,sdl,8.33
2022-08-19T07:27:00,sdl,8.56
2022-08-19T07:28:00,sdl,8.56
2022-08-19T07:29:00,sdl,8.62
2022-08-19T07:30:00,sdl,6.34
2022-08-19T07:31:00,sdl,6.35
2022-08-19T07:32:00,sdl,6.34
2022-08-19T07:33:00,sdl,6.28
2022-08-19T07:34:00,sdl,6.71
2022-08-19T07:35:00,sdl,6.33
2022-08-19T07:36:00,sdl,6.27
2022-08-19T07:37:00,sdl,6.34
2022-08-19T07:38:00,sdl,6.40
2022-08-19T07:39:00,sdl,6.36
2022-08-19T07:40:00,sdl,6.34
2022-08-19T07:41:00,sdl,6.35
2022-08-19T07:42:00,sdl,6.22
2022-08-19T07:43:00,sdl,6.17
2022-08-19T07:44:00,sdl,6.06
2022-08-19T07:45:00,sdl,6.14
2022-08-19T07:46:00,sdl,6.20
2022-08-19T07:47:00,sdl,6.61
2022-08-19T07:48:00,sdl,6.25
2022-08-19T07:49:00,sdl,6.19
2022-08-19T07:50:00,sdl,6.20
2022-08-19T07:51:00,sdl,6.11
2022-08-19T07:52:00,sdl,6.24
2022-08-19T07:53:00,sdl,6.08
2022-08-19T07:54:00,sdl,6.48
2022-08-19T07:55:00,sdl,6.48
2022-08-19T07:56:00,sdl,6.13
2022-08-19T07:57:00,sdl,5.71
2022-08-19T07:58:00,sdl,5.81
2022-08-19T07:59:00,sdl,6.34
2022-08-19T08:00:00,sdl,7.90
2022-08-19T08:01:00,sdl,7.95
2022-08-19T08:02:00,sdl,9.24
2022-08-19T08:03:00,sdl,9.18
2022-08-19T08:04:00,sdl,9.30
2022-08-19T08:05:00,sdl,9.26
2022-08-19T08:06:00,sdl,9.20
2022-08-19T08:07:00,sdl,9.18
2022-08-19T08:08:00,sdl,8.45
2022-08-19T08:09:00,sdl,9.45
2022-08-19T08:10:00,sdl,9.55
2022-08-19T08:11:00,sdl,9.51
2022-08-19T08:12:00,sdl,10.02
2022-08-19T08:13:00,sdl,9.95
2022-08-19T08:14:00,sdl,10.14
2022-08-19T08:15:00,sdl,10.20
2022-08-19T08:16:00,sdl,10.98
2022-08-19T08:17:00,sdl,8.79
2022-08-19T08:18:00,sdl,8.94
2022-08-19T08:19:00,sdl,8.88
2022-08-19T08:20:00,sdl,7.82
2022-08-19T08:21:00,sdl,7.87
2022-08-19T08:22:00,sdl,7.81
2022-08-19T08:23:00,sdl,7.88
2022-08-19T08:24:00,sdl,7.60
2022-08-19T08:25:00,sdl,7.64
2022-08-19T08:26:00,sdl,8.04
2022-08-19T08:27:00,sdl,8.04
2022-08-19T08:28:00,sdl,6.01
2022-08-19T08:29:00,sdl,5.89
2022-08-19T08:30:00,sdl,7.62
2022-08-19T08:31:00,sdl,8.50
2022-08-19T08:32:00,sdl,8.45
2022-08-19T08:33:00,sdl,8.47
2022-08-19T08:34:00,sdl,8.47
2022-08-19T08:35:00,sdl,8.44
2022-08-19T08:36:00,sdl,7.53
2022-08-19T08:37:00,sdl,7.11
2022-08-19T08:38:00,sdl,6.57
2022-08-19T08:39:00,sdl,7.15
2022-08-19T08:40:00,sdl,7.11
2022-08-19T08:41:00,sdl,7.60
2022-08-19T08:42:00,sdl,7.58
2022-08-19T08:43:00,sdl,7.56
2022-08-19T08:44:00,sdl,7.10
2022-08-19T08:45:00,sdl,7.05
2022-08-19T08:46:00,sdl,7.08
2022-08-19T08:47:00,sdl,7.96
2022-08-19T08:48:00,sdl,8.04
2022-08-19T08:49:00,sdl,8.11
2022-08-19T08:50:00,sdl,8.06
2022-08-19T08:51:00,sdl,8.13
2022-08-19T08:52:00,sdl,8.17
2022-08-19T08:53:00,sdl,7.28
2022-08-19T08:54:00,sdl,7.19
2022-08-19T08:55:00,sdl,7.87
2022-08-19T08:56:00,sdl,7.11
2022-08-19T08:57:00,sdl,9.37
2022-08-19T08:58:00,sdl,9.35
2022-08-19T08:59:00,sdl,9.78
2022-08-19T09:00:00,sdl,9.77
2022-08-19T09:01:00,sdl,9.51
2022-08-19T09:02:00,sdl,9.51
2022-08-19T09:03:00,sdl,10.32
2022-08-19T09:04:00,sdl,10.11
2022-08-19T09:05:00,sdl,10.20
2022-08-19T09:06:00,sdl,10.58
2022-08-19T09:07:00,sdl,10.58
2022-08-19T09:08:00,sdl,10.41
2022-08-19T09:09:00,sdl,9.52
2022-08-19T09:10:00,sdl,9.56
2022-08-19T09:11:00,sdl,9.65
2022-08-19T09:12:00,sdl,7.32
2022-08-19T09:13:00,sdl,7.35
2022-08-19T09:14:00,sdl,7.71
2022-08-19T09:15:00,sdl,7.22
2022-08-19T09:16:00,sdl,7.37
2022-08-19T09:17:00,sdl,7.63
2022-08-19T09:18:00,sdl,7.79
2022-08-19T09:19:00,sdl,7.85
2022-08-19T09:20:00,sdl,8.51
2022-08-19T09:21:00,sdl,8.14
2022-08-19T09:22:00,sdl,8.26
2022-08-19T09:23:00,sdl,8.12
2022-08-19T09:24:00,sdl,8.17
2022-08-19T09:25:00,sdl,8.16
2022-08-19T09:26:00,sdl,8.13
2022-08-19T09:27:00,sdl,7.23
2022-08-19T09:28:00,sdl,9.86
2022-08-19T09:29:00,sdl,9.71
2022-08-19T09:30:00,sdl,9.67
2022-08-19T09:31:00,sdl,10.04
2022-08-19T09:32:00,sdl,10.08
2022-08-19T09:33:00,sdl,9.62
2022-08-19T09:34:00,sdl,10.31
2022-08-19T09:35:00,sdl,9.56
2022-08-19T09:36:00,sdl,9.64
2022-08-19T09:37:00,sdl,11.53
2022-08-19T09:38:00,sdl,11.58
2022-08-19T09:39:00,sdl,12.07
2022-08-19T09:40:00,sdl,10.88
2022-08-19T09:41:00,sdl,9.87
2022-08-19T09:42:00,sdl,9.52
2022-08-19T09:43:00,sdl,8.63
2022-08-19T09:44:00,sdl,8.70
2022-08-19T09:45:00,sdl,8.63
2022-08-19T09:46:00,sdl,8.19
2022-08-19T09:47:00,sdl,8.10
2022-08-19T09:48:00,sdl,7.67
2022-08-19T09:49:00,sdl,7.66
2022-08-19T09:50:00,sdl,7.82
2022-08-19T09:51:00,sdl,7.74
2022-08-19T09:52:00,sdl,8.32
2022-08-19T09:53:00,sdl,9.69
2022-08-19T09:54:00,sdl,10.18
2022-08-19T09:55:00,sdl,9.41
2022-08-19T09:56:00,sdl,8.71
2022-08-19T09:57:00,sdl,8.10
2022-08-19T09:58:00,sdl,8.07
2022-08-19T09:59:00,sdl,8.51
2022-08-19T10:00:00,sdl,7.42
2022-08-19T10:01:00,sdl,7.76
2022-08-19T10:02:00,sdl,7.77
2022-08-19T10:03:00,sdl,7.71
2022-08-19T10:04:00,sdl,7.13
2022-08-19T10:05:00,sdl,7.71
2022-08-19T10:06:00,sdl,7.57
2022-08-19T10:07:00,sdl,7.70
2022-08-19T10:08:00,sdl,7.06
2022-08-19T10:09:00,sdl,7.60
2022-08-19T10:10:00,sdl,8.55
2022-08-19T10:11:00,sdl,8.08
2022-08-19T10:12:00,sdl,10.74
2022-08-19T10:13:00,sdl,10.79
2022-08-19T10:14:00,sdl,10.67
2022-08-19T10:15:00,sdl,10.74
2022-08-19T10:16:00,sdl,9.61
2022-08-19T10:17:00,sdl,10.07
2022-08-19T10:18:00,sdl,9.84
2022-08-19T10:19:00,sdl,9.84
2022-08-19T10:20:00,sdl,9.85
2022-08-19T10:21:00,sdl,10.37
2022-08-19T10:22:00,sdl,14.98
2022-08-19T10:23:00,sdl,9.71
2022-08-19T10:24:00,sdl,9.65
2022-08-19T10:25:00,sdl,9.68
2022-08-19T10:26:00,sdl,10.69
2022-08-19T10:27:00,sdl,10.67
2022-08-19T10:28:00,sdl,11.34
2022-08-19T10:29:00,sdl,8.60
2022-08-19T10:30:00,sdl,8.60
2022-08-19T10:31:00,sdl,8.60
2022-08-19T10:32:00,sdl,7.73
2022-08-19T10:33:00,sdl,7.80
2022-08-19T10:34:00,sdl,7.70
2022-08-19T10:35:00,sdl,7.68
2022-08-19T10:36:00,sdl,8.10
2022-08-19T10:37:00,sdl,7.79
2022-08-19T10:38:00,sdl,7.72
2022-08-19T10:39:00,sdl,7.73
2022-08-19T10:40:00,sdl,7.85
2022-08-19T10:41:00,sdl,7.73
2022-08-19T10:42:00,sdl,8.49
2022-08-19T10:43:00,sdl,8.53
2022-08-19T10:44:00,sdl,8.68
2022-08-19T10:45:00,sdl,8.63
2022-08-19T10:46:00,sdl,9.01
2022-08-19T10:47:00,sdl,8.98
2022-08-19T10:48:00,sdl,8.54
2022-08-19T10:49:00,sdl,7.70
2022-08-19T10:50:00,sdl,8.52
2022-08-19T10:51:00,sdl,8.02
2022-08-19T10:52:00,sdl,8.07
2022-08-19T10:53:00,sdl,7.67
2022-08-19T10:54:00,sdl,7.81
2022-08-19T10:55:00,sdl,7.12
2022-08-19T10:56:00,sdl,7.09
2022-08-19T10:57:00,sdl,7.73
2022-08-19T10:58:00,sdl,7.99
2022-08-19T10:59:00,sdl,7.94
2022-08-19T11:00:00,sdl,7.90
2022-08-19T11:01:00,sdl,7.79
2022-08-19T11:02:00,sdl,7.78
2022-08-19T11:03:00,sdl,7.66
2022-08-19T11:04:00,sdl,7.70
2022-08-19T11:05:00,sdl,8.94
2022-08-19T11:06:00,sdl,8.89
2022-08-19T11:07:00,sdl,9.00
2022-08-19T11:08:00,sdl,9.07
2022-08-19T11:09:00,sdl,8.96
2022-08-19T11:10:00,sdl,10.21
2022-08-19T11:11:00,sdl,11.06
2022-08-19T11:12:00,sdl,10.30
2022-08-19T11:13:00,sdl,9.01
2022-08-19T11:14:00,sdl,9.88
2022-08-19T11:15:00,sdl,9.89
2022-08-19T11:16:00,sdl,7.79
2022-08-19T11:17:00,sdl,7.81
2022-08-19T11:18:00,sdl,8.05
2022-08-19T11:19:00,sdl,7.73
2022-08-19T11:20:00,sdl,7.44
2022-08-19T11:21:00,sdl,6.62
2022-08-19T11:22:00,sdl,6.58
2022-08-19T11:23:00,sdl,6.58
2022-08-19T11:24:00,sdl,6.42
2022-08-19T11:25:00,sdl,6.40
2022-08-19T11:26:00,sdl,6.46
2022-08-19T11:27:00,sdl,6.58
2022-08-19T11:28:00,sdl,6.66
2022-08-19T11:29:00,sdl,6.65
2022-08-19T11:30:00,sdl,8.35
2022-08-19T11:31:00,sdl,9.72
2022-08-19T11:32:00,sdl,9.58
2022-08-19T11:33:00,sdl,8.99
2022-08-19T11:34:00,sdl,9.58
2022-08-19T11:35:00,sdl,9.51
2022-08-19T11:36:00,sdl,9.54
2022-08-19T11:37:00,sdl,9.56
2022-08-19T11:38:00,sdl,9.43
2022-08-19T11:39:00,sdl,8.55
2022-08-19T11:40:00,sdl,8.64
2022-08-19T11:41:00,sdl,9.20
2022-08-19T11:42:00,sdl,8.53
2022-08-19T11:43:00,sdl,8.42
2022-08-19T11:44:00,sdl,8.38
2022-08-19T11:45:00,sdl,8.50
2022-08-19T11:46:00,sdl,8.40
2022-08-19T11:47:00,sdl,9.77
2022-08-19T11:48:00,sdl,9.65
2022-08-19T11:49:00,sdl,7.10
2022-08-19T11:50:00,sdl,6.65
2022-08-19T11:51:00,sdl,6.65
2022-08-19T11:52:00,sdl,6.63
2022-08-19T11:53:00,sdl,6.96
2022-08-19T11:54:00,sdl,6.42
2022-08-19T11:55:00,sdl,5.47
2022-08-19T11:56:00,sdl,5.51
2022-08-19T11:57:00,sdl,5.49
2022-08-19T11:58:00,sdl,5.84
2022-08-19T11:59:00,sdl,6.19
2022-08-19T12:00:00,sdl,11.28
2022-08-19T12:01:00,sdl,6.27
2022-08-19T12:02:00,sdl,6.38
2022-08-19T12:03:00,sdl,7.17
2022-08-19T12:04:00,sdl,7.44
2022-08-19T12:05:00,sdl,7.54
2022-08-19T12:06:00,sdl,6.62
2022-08-19T12:07:00,sdl,6.50
2022-08-19T12:08:00,sdl,6.49
2022-08-19T12:09:00,sdl,6.58
2022-08-19T12:10:00,sdl,6.52
2022-08-19T12:11:00,sdl,5.71
2022-08-19T12:12:00,sdl,5.97
2022-08-19T12:13:00,sdl,5.73
2022-08-19T12:14:00,sdl,5.64
2022-08-19T12:15:00,sdl,5.65
2022-08-19T12:16:00,sdl,6.02
2022-08-19T12:17:00,sdl,5.99
2022-08-19T12:18:00,sdl,5.51
2022-08-19T12:19:00,sdl,5.52
2022-08-19T12:20:00,sdl,6.62
2022-08-19T12:21:00,sdl,6.60
2022-08-19T12:22:00,sdl,6.75
2022-08-19T12:23:00,sdl,6.69
2022-08-19T12:24:00,sdl,7.09
2022-08-19T12:25:00,sdl,8.89
2022-08-19T12:26:00,sdl,8.94
2022-08-19T12:27:00,sdl,8.95
2022-08-19T12:28:00,sdl,8.04
2022-08-19T12:29:00,sdl,8.05
2022-08-19T12:30:00,sdl,7.96
2022-08-19T12:31:00,sdl,7.93
2022-08-19T12:32:00,sdl,7.84
2022-08-19T12:33:00,sdl,7.90
2022-08-19T12:34:00,sdl,7.86
2022-08-19T12:35:00,sdl,7.91
2022-08-19T12:36:00,sdl,8.65
2022-08-19T12:37:00,sdl,8.65
2022-08-19T12:38:00,sdl,8.72
2022-08-19T12:39:00,sdl,8.70
2022-08-19T12:40:00,sdl,8.33
2022-08-19T12:41:00,sdl,8.26
2022-08-19T12:42:00,sdl,8.94
2022-08-19T12:43:00,sdl,6.75
2022-08-19T12:44:00,sdl,6.95
2022-08-19T12:45:00,sdl,5.87
2022-08-19T12:46:00,sdl,5.30
2022-08-19T12:47:00,sdl,5.46
2022-08-19T12:48:00,sdl,5.46
2022-08-19T12:49:00,sdl,5.90
2022-08-19T12:50:00,sdl,5.36
2022-08-19T12:51:00,sdl,5.73
2022-08-19T12:52:00,sdl,5.38
2022-08-19T12:53:00,sdl,6.23
2022-08-19T12:54:00,sdl,6.23
2022-08-19T12:55:00,sdl,6.20
2022-08-19T12:56:00,sdl,6.11
2022-08-19T12:57:00,sdl,6.05
2022-08-19T12:58:00,sdl,7.15
2022-08-19T12:59:00,sdl,6.52
2022-08-19T13:00:00,sdl,7.16
2022-08-19T13:01:00,sdl,6.36
2022-08-19T13:02:00,sdl,6.33
2022-08-19T13:03:00,sdl,5.73
2022-08-19T13:04:00,sdl,5.52
2022-08-19T13:05:00,sdl,6.52
2022-08-19T13:06:00,sdl,5.51
2022-08-19T13:07:00,sdl,5.75
2022-08-19T13:08:00,sdl,5.57
2022-08-19T13:09:00,sdl,8.43
2022-08-19T13:10:00,sdl,8.67
2022-08-19T13:11:00,sdl,8.64
2022-08-19T13:12:00,sdl,9.13
2022-08-19T13:13:00,sdl,9.21
2022-08-19T13:14:00,sdl,9.27
2022-08-19T13:15:00,sdl,9.26
2022-08-19T13:16:00,sdl,9.37
2022-08-19T13:17:00,sdl,9.15
2022-08-19T13:18:00,sdl,8.91
2022-08-19T13:19:00,sdl,5.79
2022-08-19T13:20:00,sdl,7.26
2022-08-19T13:21:00,sdl,7.15
2022-08-19T13:22:00,sdl,7.76
2022-08-19T13:23:00,sdl,6.80
2022-08-19T13:24:00,sdl,6.80
2022-08-19T13:25:00,sdl,7.23
2022-08-19T13:26:00,sdl,7.24
2022-08-19T13:27:00,sdl,7.19
2022-08-19T13:28:00,sdl,7.86
2022-08-19T13:29:00,sdl,7.07
2022-08-19T13:30:00,sdl,7.29
2022-08-19T13:31:00,sdl,7.04
2022-08-19T13:32:00,sdl,7.45
2022-08-19T13:33:00,sdl,7.05
2022-08-19T13:34:00,sdl,5.89
2022-08-19T13:35:00,sdl,5.95
2022-08-19T13:36:00,sdl,8.04
2022-08-19T13:37:00,sdl,7.26
2022-08-19T13:38:00,sdl,8.15
2022-08-19T13:39:00,sdl,7.64